Regional Weather Roundup
Issued by NWS Grand Forks, ND

Home | Current Version | Previous Version | Graphics & Text | Print | Product List | Glossary On
Versions: 1 2 3 4 5 6 7 8 9 10 11 12 13 14 15 16 17 18 19 20 21 22 23 24 25 26 27 28 29 30 31 32 33 34 35 36 37 38 39 40 41 42 43 44 45 46 47 48 49 50
000
ASUS43 KFGF 020731
RWRFGF
PRAIRIE TO PINES  WEATHER ROUNDUP
NATIONAL WEATHER SERVICE EASTERN NORTH DAKOTA/GRAND FORKS ND
200 AM CDT THU JUL 02 2015

 **SATELLITE DATA USED TO AUGMENT SKY COVER AT AUTOMATED STATIONS**
 *****  WEATHER ACROSS EASTERN NORTH DAKOTA  *****

CITY           SKY/WX    TMP DP  RH WIND       PRES   REMARKS
GRAND FORKS    CLEAR     60  57  89 S6        29.95R
GRAND FRKS AFB CLEAR     62  58  87 S5        29.96R
GRAND FRKS NWS   N/A     61 N/A N/A S3          N/A
DEVILS LAKE    MOCLDY    66  61  82 S5        29.93F
FARGO          CLEAR     64  55  72 S9        29.98S
WAHPETON ARPT  NOT AVBL
$$

 ***** WEATHER ACROSS CENTRAL AND WESTERN NORTH DAKOTA  *****

CITY           SKY/WX    TMP DP  RH WIND       PRES   REMARKS
BISMARCK       MOCLDY    67  65  93 CALM      29.95F
MINOT          MOCLDY    65  62  90 SW5       29.95S FOG
JAMESTOWN      PTCLDY    64  62  93 S6        29.95F
MINOT AFB      MOCLDY    62  62 100 W5        29.94S FOG
GARRISON         N/A     66  62  87 CALM      29.96S
WILLISTON      CLOUDY    65  60  84 W8        30.00R
DICKINSON      PTCLDY    62  60  93 W5        29.99S FOG
HETTINGER      PTCLDY    61  58  90 N7        30.00R
$$

 *****  OTHER AIRPORT OBSERVATIONS IN OUR AREA  *****

CITY           SKY/WX    TMP DP  RH WIND       PRES   REMARKS
WALHALLA       FAIR      63  63 100 MISG      29.93F
GRAFTON AIRPOR FAIR      59  59 100 S8        29.94F FOG
VALLEY CITY AR PTSUNNY   63  63 100 S3        29.96F
CANDO          PTSUNNY   64  63  94 S5        29.94F
CAVALIER APRT  FAIR      63  59  88 S3        29.93S
GWINNER          N/A     61  61 100 SE6       29.97F
ROLLA          CLOUDY    63  63 100 N5        29.96S
 ***** THE ABOVE OBSERVATIONS ARE NON NWS ARE NOT QUALITY
       CONTROLLED AND MAY MIS-REPORT RAIN FOR SNOW...
$$

  *****  WEATHER ACROSS NORTHERN MINNESOTA  *****

CITY           SKY/WX    TMP DP  RH WIND       PRES   REMARKS
FLAG ISLAND    CLEAR     66  63  88 CALM      29.93
WARROAD        CLEAR     61  57  88 SW6       29.96
ROSEAU         CLEAR     61  55  82 S6        29.95
HALLOCK        PTCLDY    59  57  94 S8        29.94S
THF RVR FALLS  CLEAR     61  55  82 SW6       29.98S
BAUDETTE       CLEAR     57  55  93 CALM      29.95S
WASKISH        CLEAR     66  64  94 W10G16    29.97F
CROOKSTON      CLEAR     61  55  82 S6        29.98S
$$
  *****  WEATHER ACROSS CENTRAL AND WEST MINNESOTA  *****

CITY           SKY/WX    TMP DP  RH WIND       PRES   REMARKS
FOSSTON        PTCLDY    55  54  94 CALM      30.01R
BEMIDJI        CLEAR     62  57  84 W5        30.00
PARK RAPIDS    MOCLDY    62  56  80 SW3       30.01S
ELBOW LAKE     FAIR      60  55  83 SE5       30.00
WADENA           N/A     57  55  94 CALM      30.01S
DETROIT LAKES  CLEAR     63  55  77 SW5       30.02S
MOORHEAD       CLEAR     59  55  88 SE5       29.99
FERGUS FALLS   CLEAR     61  55  82 SE5       30.00
MORRIS MN      CLEAR     55  54  94 S6        29.99
STAPLES        PTCLDY    57  54  88 SW3       30.02
$$
  *****  WEATHER ELSEWHERE ACROSS MINNESOTA  *****

CITY           SKY/WX    TMP DP  RH WIND       PRES   REMARKS
DULUTH         CLEAR     55  49  80 SE3       30.01S
INTRNTL FALLS  CLEAR     52  50  93 CALM      29.96S
ELY            CLEAR     52  48  87 SE3       30.00
CLOQUET        CLEAR     52  50  93 CALM      30.01S
WHEATON        CLEAR     54  52  94 SE8       30.00F
BRAINERD       MOCLDY    59  55  87 SW5       30.01S
HIBBING        CLEAR     52  51  97 CALM      30.00S FOG
ALEXANDRIA     CLEAR     58  54  86 CALM      30.04R
SAINT CLOUD    CLEAR     53  52  96 CALM      30.01S
MINNEAPOLIS    CLEAR     59  54  83 CALM      30.01R
$$

  *****  WEATHER ACROSS SOUTH DAKOTA  *****

CITY           SKY/WX    TMP DP  RH WIND       PRES   REMARKS
SIOUX FALLS    CLEAR     60  55  83 E8        29.97F
BROOKINGS      CLEAR     59  52  77 SE9       29.99F
WATERTOWN      PTCLDY    60  53  77 SE5       29.98F
HURON          CLOUDY    63  58  83 SE9       29.95S
SISSETON         N/A     58  54  86 SW5       29.98S
ABERDEEN       MOCLDY    62  57  83 SE7       29.95F
MITCHELL       PTCLDY    63  58  83 E8        29.95F
PIERRE         CLOUDY    68  66  93 SE6       29.93R
MOBRIDGE       CLOUDY    68  68 100 SE6       29.92F
RAPID CITY     CLOUDY    63  60  90 W8        30.05S
$$

  *****  SOME WEATHER IN NEARBY STATES *****

CITY           SKY/WX    TMP DP  RH WIND       PRES   REMARKS
GLASGOW MT     MOCLDY    61  52  72 NW5       30.05S
GREAT FALLS MT CLOUDY    68  51  54 NE8       30.19R
CHEYENNE WY    CLEAR     58  52  80 W9        30.14S
SCOTTSBLUFF NE PTCLDY    66  60  81 SE8       30.04R
OMAHA NE       MOCLDY    69  60  73 E7        29.93S
DES MOINES IA  CLEAR     63  56  78 E8        29.95S
DAVENPORT IA   PTCLDY    60  56  86 E10       29.99R
CHICAGO IL     PTCLDY    53  50  89 N5        29.99S
EAU CLAIRE WI  CLEAR     53  50  89 CALM      29.99S
LA CROSSE WI   CLEAR     55  53  93 CALM      29.99S
$$

  *****  SOME NATIONAL WEATHER *****

CITY           SKY/WX    TMP DP  RH WIND       PRES   REMARKS
LA GUARDIA NY  CLEAR     71  61  70 NW6       29.87S
RALEIGH NC     CLOUDY    77  70  79 SW10      29.92F
ATLANTA GA     CLOUDY    70  66  87 W6        30.03F
NEW ORLEANS LA CLOUDY    76  70  82 SW7       30.05F
OKLAHOMA CITY  MOCLDY    79  68  69 S10       29.87S
ALBUQUERQUE NM CLOUDY    82  47  29 E17       30.12F
SALT LAKE CITY CLOUDY    82  57  42 S5        30.01F
LOS ANGELES CA CLOUDY    67  62  84 NW6       29.95F
BOISE ID       PTCLDY    81  43  26 SW6       29.94R
SEATTLE WA     CLEAR     76  55  48 NE12      29.98S
$$

*** WEATHER ACROSS MANITOBA...SASKATCHEWAN AND ONTARIO ***
                ***ONTARIO***

CITY           SKY/WX    TMP DP  RH WIND       PRES   REMARKS
GERALDTON      CLEAR     46  46 100 S2        29.98S
THUNDER BAY    MOCLDY    50  50 100 NW3       29.99S
SIOUX LOOKOUT  CLOUDY    59  59 100 S5        29.95F
TORONTO        MOCLDY    59  54  82 N10       29.94S
BIG TROUT LK   CLEAR     55  50  82 E5        29.92F
PICKLE LAKE    NOT AVBL
DRYDEN         MOCLDY    63  59  88 S8        29.95S
KENORA         PTCLDY    66  59  77 W5        29.95
$$
                *** MANITOBA***

CITY           SKY/WX    TMP DP  RH WIND       PRES   REMARKS
BRANDON        FOG       57  57 100 NW8       29.94F VSB 1/2
DAUPHIN        CLEAR     63  59  88 SW8       29.90F FOG
ISLAND LAKE    PTCLDY    64  57  77 VRB2      29.87F
PILOT MOUND      N/A     63  57  82 S2          N/A
THE PAS        CLOUDY    61  59  94 CALM      29.90S
THOMPSON       CLOUDY    55  50  82 CALM      29.84F
WINNIPEG       PTCLDY    64  59  82 S7        29.92F
LYNN LAKE        N/A     59  52  77 SW21G26   29.82S
CHURCHILL      LGT RAIN  61  54  77 SW5       29.74F
$$
                ***SASKATCHEWAN***

CITY           SKY/WX    TMP DP  RH WIND       PRES   REMARKS
ESTEVAN        CLOUDY    61  59  94 N6        29.97  SMOKE
KINDERSLEY     PTCLDY    59  59 100 NW6       30.06S
LLOYDMINSTER   CLEAR     61  57  88 NW7       30.05R
PRINCE ALBERT    N/A     61  61 100 SW2       29.95F SMOKE
REGINA         PTCLDY    61  59  94 N5        29.98S
YORKTON        CLEAR     63  61  94 W7        29.94F FOG
N. BATTLEFORD  CLOUDY    63  61  94 W3        30.03S FOG
LA RONGE       CLOUDY    59  55  88 CALM      29.93S
SASKATOON      PTCLDY    57  55  94 W8        29.99F
SWIFT CURRENT  MOCLDY    61 N/A N/A W8        30.05S
$$
NOTE: THESE ARE AUTOMATED STATIONS WITH LIMITED QUALITY CONTROL
      "FAIR" INDICATES FEW OR NO CLOUDS BELOW 12,000 FEET WITH NO
      SIGNIFICANT WEATHER AND/OR OBSTRUCTIONS TO VISIBILITY.
      SKY/WX - SKY CONDITION AND SIGNIFICANT WEATHER.
      TMP - AIR TEMPERATURE.    DP   - DEWPOINT TEMPERATURE.
      RH  - RELATIVE HUMIDITY.  PRES - PRESSURE.
      HX  - HEAT INDEX.         WCI  - WIND CHILL INDEX.
$


USA.gov is the U.S. government's official web portal to all federal, state and local government web resources and services.